When you browse on this site, cookies collect data to enhance your experience and personalize the content and advertising you see.
Visit our Privacy Policy to learn more. By continuing to use the site, you agree to this use of cookies and data.
  • In Österreich
  • Länderverzeichnis
  • Für 7 Tage
  • Wassertemperatur
  • Satellitenkarten
  • Wetterkarte
  • News
  • Widgets
  • user-avatar
    Anmelden

    Stündliche Wetter Balcho

    Heute, 21 November, Mittwoch

    Zeit Temperatur Niederschläge Wind Luftdruck Luftfeuchtigkeit
    00:00 +30°C° 0 mm 3 m/S 739 mmHg 37%
    01:00 +29°C° 0 mm 3 m/S 738 mmHg 39%
    02:00 +29°C° 0 mm 2 m/S 738 mmHg 41%
    03:00 +28°C° 0 mm 2 m/S 738 mmHg 43%
    04:00 +27°C° 0 mm 2 m/S 738 mmHg 44%
    05:00 +27°C° 0 mm 2 m/S 739 mmHg 45%
    06:00 +27°C° 0 mm 2 m/S 739 mmHg 46%
    07:00 +28°C° 0 mm 2 m/S 739 mmHg 41%
    08:00 +30°C° 0 mm 3 m/S 739 mmHg 35%
    09:00 +31°C° 0 mm 3 m/S 740 mmHg 30%
    10:00 +33°C° 0 mm 4 m/S 739 mmHg 26%
    11:00 +35°C° 0 mm 4 m/S 739 mmHg 22%
    12:00 +36°C° 0 mm 4 m/S 739 mmHg 19%
    13:00 +37°C° 0 mm 5 m/S 738 mmHg 18%
    14:00 +37°C° 0 mm 5 m/S 738 mmHg 17%
    15:00 +37°C° 0 mm 5 m/S 737 mmHg 16%
    16:00 +37°C° 0 mm 5 m/S 737 mmHg 17%
    17:00 +36°C° 0 mm 5 m/S 737 mmHg 19%
    18:00 +35°C° 0 mm 5 m/S 737 mmHg 20%
    19:00 +34°C° 0 mm 5 m/S 738 mmHg 21%
    20:00 +33°C° 0 mm 5 m/S 738 mmHg 22%
    21:00 +33°C° 0 mm 4 m/S 738 mmHg 23%
    22:00 +32°C° 0 mm 4 m/S 738 mmHg 25%
    23:00 +30°C° 0 mm 3 m/S 738 mmHg 27%

    Morgen, 22 November, Donnerstag

    Zeit Temperatur Niederschläge Wind Luftdruck Luftfeuchtigkeit
    00:00 +30°C° 0 mm 3 m/S 738 mmHg 30%
    01:00 +29°C° 0 mm 3 m/S 738 mmHg 32%
    02:00 +28°C° 0 mm 2 m/S 738 mmHg 35%
    03:00 +28°C° 0 mm 2 m/S 737 mmHg 38%
    04:00 +27°C° 0 mm 2 m/S 738 mmHg 41%
    05:00 +27°C° 0 mm 2 m/S 738 mmHg 43%
    06:00 +27°C° 0 mm 2 m/S 738 mmHg 46%
    07:00 +28°C° 0 mm 3 m/S 738 mmHg 42%
    08:00 +29°C° 0 mm 4 m/S 739 mmHg 38%
    09:00 +32°C° 0 mm 4 m/S 739 mmHg 35%
    10:00 +33°C° 0 mm 5 m/S 739 mmHg 31%
    11:00 +34°C° 0 mm 6 m/S 739 mmHg 28%
    12:00 +36°C° 0 mm 6 m/S 738 mmHg 25%
    13:00 +36°C° 0 mm 6 m/S 738 mmHg 24%
    14:00 +36°C° 0 mm 7 m/S 737 mmHg 24%
    15:00 +36°C° 0 mm 7 m/S 736 mmHg 24%
    16:00 +35°C° 0 mm 7 m/S 736 mmHg 26%
    17:00 +34°C° 0 mm 7 m/S 737 mmHg 29%
    18:00 +33°C° 0 mm 6 m/S 737 mmHg 31%
    19:00 +32°C° 0 mm 6 m/S 737 mmHg 34%
    20:00 +32°C° 0 mm 6 m/S 738 mmHg 38%
    21:00 +30°C° 0 mm 5 m/S 738 mmHg 41%
    22:00 +29°C° 0 mm 5 m/S 738 mmHg 44%
    23:00 +29°C° 0 mm 4 m/S 738 mmHg 48%

    übermorgen, 23 November, Freitag

    Zeit Temperatur Niederschläge Wind Luftdruck Luftfeuchtigkeit
    00:00 +28°C° 0 mm 4 m/S 738 mmHg 51%
    01:00 +28°C° 0 mm 4 m/S 738 mmHg 55%
    02:00 +27°C° 0 mm 4 m/S 737 mmHg 60%
    03:00 +27°C° 0 mm 4 m/S 737 mmHg 64%
    04:00 +27°C° 0 mm 3 m/S 737 mmHg 67%
    05:00 +26°C° 0 mm 3 m/S 737 mmHg 70%
    06:00 +26°C° 0 mm 3 m/S 737 mmHg 72%
    07:00 +27°C° 0 mm 4 m/S 738 mmHg 67%
    08:00 +28°C° 0 mm 5 m/S 739 mmHg 61%
    09:00 +30°C° 0 mm 5 m/S 739 mmHg 55%
    10:00 +32°C° 0 mm 6 m/S 739 mmHg 50%
    11:00 +33°C° 0 mm 6 m/S 738 mmHg 45%
    12:00 +35°C° 0 mm 7 m/S 738 mmHg 40%
    13:00 +35°C° 0 mm 6 m/S 737 mmHg 40%
    14:00 +35°C° 0 mm 6 m/S 736 mmHg 39%
    15:00 +36°C° 0 mm 6 m/S 736 mmHg 38%
    16:00 +34°C° 0 mm 6 m/S 736 mmHg 44%
    17:00 +33°C° 0 mm 6 m/S 736 mmHg 49%
    18:00 +32°C° 0 mm 6 m/S 736 mmHg 54%
    19:00 +32°C° 0 mm 6 m/S 737 mmHg 57%
    20:00 +30°C° 0 mm 6 m/S 737 mmHg 61%
    21:00 +29°C° 0 mm 6 m/S 738 mmHg 65%
    22:00 +29°C° 0 mm 5 m/S 738 mmHg 67%
    23:00 +29°C° 0 mm 5 m/S 738 mmHg 69%

    24 November, Samstag

    Zeit Temperatur Niederschläge Wind Luftdruck Luftfeuchtigkeit
    00:00 +28°C° 0 mm 5 m/S 737 mmHg 71%
    01:00 +28°C° 0 mm 5 m/S 737 mmHg 72%
    02:00 +28°C° 0 mm 4 m/S 737 mmHg 73%
    03:00 +27°C° 0 mm 4 m/S 736 mmHg 75%
    04:00 +27°C° 0 mm 3 m/S 737 mmHg 76%
    05:00 +27°C° 0 mm 3 m/S 737 mmHg 77%
    06:00 +27°C° 0 mm 3 m/S 737 mmHg 78%
    07:00 +28°C° 0 mm 3 m/S 738 mmHg 72%
    08:00 +29°C° 0 mm 4 m/S 739 mmHg 66%
    09:00 +30°C° 0 mm 5 m/S 739 mmHg 60%
    10:00 +33°C° 0 mm 5 m/S 739 mmHg 54%
    11:00 +34°C° 0 mm 5 m/S 738 mmHg 48%
    12:00 +35°C° 0 mm 5 m/S 738 mmHg 41%
    13:00 +36°C° 0 mm 5 m/S 737 mmHg 40%
    14:00 +36°C° 0 mm 5 m/S 736 mmHg 38%
    15:00 +36°C° 0 mm 5 m/S 736 mmHg 37%
    16:00 +36°C° 0 mm 5 m/S 736 mmHg 41%
    17:00 +35°C° 0 mm 5 m/S 736 mmHg 44%
    18:00 +34°C° 0 mm 5 m/S 736 mmHg 48%
    19:00 +33°C° 0 mm 5 m/S 737 mmHg 53%
    20:00 +32°C° 0 mm 5 m/S 737 mmHg 57%
    21:00 +30°C° 0 mm 5 m/S 738 mmHg 62%
    22:00 +30°C° 0 mm 5 m/S 738 mmHg 64%
    23:00 +29°C° 0 mm 4 m/S 738 mmHg 66%

    25 November, Sonntag

    Zeit Temperatur Niederschläge Wind Luftdruck Luftfeuchtigkeit
    00:00 +29°C° 0 mm 4 m/S 737 mmHg 68%
    01:00 +29°C° 0 mm 4 m/S 737 mmHg 70%
    02:00 +28°C° 0 mm 4 m/S 737 mmHg 71%
    03:00 +28°C° 0 mm 4 m/S 736 mmHg 73%
    04:00 +28°C° 0 mm 3 m/S 737 mmHg 74%
    05:00 +28°C° 0 mm 3 m/S 737 mmHg 75%
    06:00 +28°C° 0 mm 3 m/S 737 mmHg 77%
    07:00 +29°C° 0 mm 3 m/S 738 mmHg 72%
    08:00 +30°C° 0 mm 4 m/S 739 mmHg 67%
    09:00 +32°C° 0 mm 4 m/S 739 mmHg 61%
    10:00 +33°C° 0 mm 4 m/S 739 mmHg 56%
    11:00 +34°C° 0 mm 4 m/S 738 mmHg 51%
    12:00 +35°C° 0 mm 5 m/S 738 mmHg 46%
    13:00 +36°C° 0 mm 4 m/S 737 mmHg 44%
    14:00 +36°C° 0 mm 4 m/S 736 mmHg 43%
    15:00 +36°C° 0 mm 4 m/S 736 mmHg 41%
    16:00 +36°C° 0 mm 4 m/S 736 mmHg 44%
    17:00 +35°C° 0 mm 4 m/S 736 mmHg 47%
    18:00 +34°C° 0 mm 5 m/S 736 mmHg 50%
    19:00 +33°C° 0 mm 4 m/S 737 mmHg 54%
    20:00 +33°C° 0 mm 4 m/S 737 mmHg 58%
    21:00 +32°C° 0 mm 4 m/S 738 mmHg 62%
    22:00 +30°C° 0 mm 4 m/S 737 mmHg 64%
    23:00 +30°C° 0 mm 4 m/S 737 mmHg 66%

    26 November, Montag

    Zeit Temperatur Niederschläge Wind Luftdruck Luftfeuchtigkeit
    00:00 +30°C° 0 mm 3 m/S 737 mmHg 69%
    01:00 +29°C° 0 mm 3 m/S 737 mmHg 70%
    02:00 +29°C° 0 mm 3 m/S 736 mmHg 72%
    03:00 +29°C° 0 mm 3 m/S 736 mmHg 73%
    04:00 +28°C° 0 mm 3 m/S 736 mmHg 75%
    05:00 +28°C° 0 mm 2 m/S 737 mmHg 76%
    06:00 +28°C° 0 mm 2 m/S 737 mmHg 77%
    07:00 +29°C° 0 mm 3 m/S 737 mmHg 72%
    08:00 +30°C° 0 mm 3 m/S 738 mmHg 68%
    09:00 +31°C° 0 mm 3 m/S 738 mmHg 63%
    10:00 +33°C° 0 mm 3 m/S 738 mmHg 57%
    11:00 +34°C° 0 mm 3 m/S 737 mmHg 52%
    12:00 +35°C° 0 mm 3 m/S 737 mmHg 47%
    13:00 +35°C° 0.2 mm 3 m/S 736 mmHg 45%
    14:00 +36°C° 0.2 mm 3 m/S 736 mmHg 43%
    15:00 +36°C° 0.2 mm 3 m/S 735 mmHg 41%
    16:00 +36°C° 0 mm 3 m/S 735 mmHg 44%
    17:00 +35°C° 0 mm 4 m/S 736 mmHg 46%
    18:00 +35°C° 0 mm 4 m/S 736 mmHg 49%
    19:00 +34°C° 0 mm 4 m/S 736 mmHg 53%
    20:00 +33°C° 0 mm 4 m/S 737 mmHg 58%
    21:00 +32°C° 0 mm 4 m/S 737 mmHg 62%
    22:00 +32°C° 0 mm 4 m/S 737 mmHg 64%
    23:00 +30°C° 0 mm 4 m/S 737 mmHg 67%
    Mehr zeigen